{"data":{"norad_id":64151,"intl_designator":"2025-112F","name":"STARLINK-34338","alt_names":[],"object_type":"PAYLOAD","status":"ACTIVE","operator":null,"country":"US","launch_date":"2025-05-27","launch_site_code":"AFWTR","launch_vehicle":null,"mission":null,"orbit_class":"UNKNOWN","rcs_meters":null,"size_class":null,"mass_kg":null,"dimensions":null,"purposes":["comms"],"wikipedia_slug":null,"has_3d_model":false,"image_url":null,"decayed_at":null,"tle_current":{"epoch":"2026-09-20T21:23:51.809568Z","epoch_age_seconds":106505,"freshness":"FRESH","line1":"1 64151U 25112F   26263.89157187  .00013698  00000+0  42572-3 0  9992","line2":"2 64151  97.2860 310.8867 0000589  63.8558 296.2745 15.33454452 72809","mean_motion":15.33454452,"eccentricity":5.89e-5,"inclination_deg":97.286,"raan_deg":310.8867,"arg_perigee_deg":63.8558,"mean_anomaly_deg":296.2745,"bstar":0.00042572,"rev_number":7280,"period_min":93.905625832048,"perigee_km":465.11196101476,"apogee_km":465.9181432265,"semimajor_km":6843.6520521206,"source":"CELESTRAK","updated_at":"2026-09-21T09:00:35.238584Z"}}}